Regional Weather Roundup
Issued by NWS

Home | Current Version | Previous Version | Text Only | Print | Product List | Glossary On
Versions: 1 2 3 4 5 6 7 8 9 10 11 12 13 14 15 16 17 18 19 20 21 22 23 24 25 26 27 28 29 30 31 32 33 34 35 36 37 38 39 40 41 42 43 44 45 46 47 48 49 50
000
ASUS44 KMEG 210910
RWRTN
TENNESSEE HOURLY STATE WEATHER ROUNDUP
NATIONAL WEATHER SERVICE MEMPHIS TN
400 AM CDT MON AUG 21 2017

TNZ002-004-019-021-049-052-054-088>092-211000-
WEST TENNESSEE

CITY           SKY/WX    TMP DP  RH WIND       PRES   REMARKS
MEMPHIS INTL   CLEAR     76  73  91 SW3       30.08F
NWS MEMPHIS      N/A     75 N/A N/A MISG        N/A
JACKSON        CLEAR     71  71 100 CALM      30.09S FOG
DYERSBURG      CLEAR     74  74 100 SE3       30.09S
SOMERVILLE     CLEAR     73  73 100 CALM      30.08S
COVINGTON      CLEAR     73  73 100 CALM      30.08S
UNION CITY     CLEAR     68  66  94 CALM      30.07S
BOLIVAR        CLEAR     73  72  94 CALM      30.09S
PARIS          CLEAR     70  68  94 CALM      30.08F
HUNTINGDON     CLEAR     70  70 100 CALM      30.09S
LEXINGTON      CLEAR     70  68  94 CALM      30.10F FOG
SELMER         CLEAR     72  70  94 CALM      30.10S
SAVANNAH       MOCLDY    70  70 100 CALM      30.10R
$$

TNZ008-025-027-028-033-062-065-066-211000-
NORTH MIDDLE TENNESSEE

CITY           SKY/WX    TMP DP  RH WIND       PRES   REMARKS
NASHVILLE      PTCLDY    73  69  87 CALM      30.13S
PORTLAND       CLEAR     70  66  88 S6        30.12F
CLARKSVILLE    PTCLDY    69  67  93 CALM      30.11F
SMYRNA         PTCLDY    70  69  97 SE3       30.14R
COOKEVILLE     FOG       66  66 100 CALM      30.16S VSB 3/4
GALLATIN       CLEAR     70  66  88 CALM      30.16R
CROSSVILLE     CLEAR     66  64  93 CALM      30.22S
$$

TNZ061-075-076-078-094-096-097-211000-
SOUTH MIDDLE TENNESSEE

CITY           SKY/WX    TMP DP  RH WIND       PRES   REMARKS
FAYETTEVILLE   CLEAR     72  68  88 CALM      30.14S
TULLAHOMA      CLEAR     70  66  88 CALM      30.17S
WINCHESTER     CLEAR     68  66  94 CALM      30.16S
MCMINNVILLE    CLEAR     68  68 100 CALM      30.17R
COLUMBIA       MOCLDY    68  68 100 CALM      30.12R
SHELBYVILLE    CLEAR     70  70 100 CALM      30.14R
$$

TNZ017-018-042-046-047-211000-
NORTHEAST TENNESSEE

CITY           SKY/WX    TMP DP  RH WIND       PRES   REMARKS
TRI CITIES     CLEAR     68  66  93 CALM      30.22R
ELIZABETHTON   CLEAR     68  66  94 NE5       30.23R
$$

TNZ012-013-036-069-073-074-211000-
CENTRAL EAST TENNESSEE

CITY           SKY/WX    TMP DP  RH WIND       PRES   REMARKS
KNOXVILLE      CLEAR     70  67  90 CALM      30.17R
OAK RIDGE      PTCLDY    70  68  93 CALM      30.19S
DOWNTOWN KNOXV   N/A     68  68 100 CALM      30.17S FOG
GATLINBURG     CLEAR     66  66 100 CALM      30.18R
MORRISTOWN     CLEAR     70  66  88 E3        30.19R
JACKSBORO      FOG       66  66 100 CALM      30.22S VSB 1/2
$$

TNZ083-085-099-211000-
SOUTHEAST TENNESSEE

CITY           SKY/WX    TMP DP  RH WIND       PRES   REMARKS
CHATTANOOGA    CLEAR     72  69  90 CALM      30.16S
DAYTON         PTSUNNY   68  68 100 CALM      30.15S
$$

SKY/WX REPORTED AS FAIR MEANS FEW OR NO CLOUDS BELOW
12 THOUSAND FEET.





USA.gov is the U.S. government's official web portal to all federal, state and local government web resources and services.